CAPE
241 733 1166 1395 1124 1025 1094 1249 1531 909 1041 1234 1319 1301 1223 1229 1253 1198 1346 1641 1770 1631 1272 1240 1314 1363 1436 1678 1757 1698 1793 1843 2056 1703 2062 1801 1422 1567 1789 1340 1161 1756 1915
249 692 886 1467 1395 1266 1296 1283 1671 1100 918 1150 1261 1248 1310 1231 1302 1227 1220 1528 1787 1733 1514 1221 1105 1221 1375 1570 1220 1542 1660 1539 1539 1100 1132 1101 1167 1311 1508 1129 1298 1251 2044
386 472 917 1216 1561 1572 1047 1125 920 1227 1115 1400 1438 1613 1399 1315 1280 1355 1272 1070 1540 1483 1397 1377 1351 1288 1485 1620 1265 1074 1332 1230 1390 1184 684 485 672 690 1170 1085 1368 1561 1639
407 392 653 972 1558 1598 1181 1224 938 1201 1134 1372 1307 1383 1338 1464 1415 1450 1326 1258 1308 1288 1255 1173 1381 1464 1569 1835 1365 1244 1287 1101 1021 1029 733 155 61 993 806 964 1078 1155 1367
418 370 840 1075 1389 1571 1200 1129 884 1013 1095 880 905 860 856 443 372 1432 1256 1402 1158 1079 1299 1363 1453 1672 1600 1639 759 1302 1075 846 285 179 482 402 457 592 291 437 517 619 1285
417 277 840 1010 1155 148 1291 1290 1128 877 1096 627 524 310 514 278 368 384 854 901 1005 951 1195 1545 1778 1763 1760 1354 1159 1209 553 287 158 188 345 565 442 332 2 79 261 188 647
449 396 820 1097 221 732 800 536 305 508 0 429 514 290 246 256 109 251 513 940 818 998 1258 1476 1567 1666 1732 1656 773 786 478 366 84 319 271 561 380 227 40 198 119 66 341
447 345 979 409 189 248 230 88 8 0 30 199 251 49 91 248 264 60 626 868 1061 1305 1551 1658 1643 1567 1607 1621 578 376 292 504 206 89 460 382 416 190 178 206 116 80 192
261 736 835 369 410 465 29 66 13 0 52 155 307 177 111 200 147 119 527 1039 1335 1445 1561 1473 1348 1405 906 1051 790 439 400 638 792 491 563 332 151 301 166 64 86 122 159
582 677 671 615 702 91 61 65 76 2 61 218 48 124 45 299 133 167 638 1159 1512 1257 928 1382 1338 1570 838 1085 851 462 465 384 535 660 840 326 142 394 217 146 146 132 123
296 392 439 688 841 16 32 272 258 108 189 125 179 54 127 179 215 120 281 1055 1557 1267 989 1165 1374 1445 1234 686 466 631 486 472 791 678 516 110 158 206 447 284 334 197 114
438 464 480 580 723 492 189 214 250 55 243 72 124 55 90 50 275 265 423 949 857 970 1043 1143 1410 1156 932 1174 899 471 558 686 514 806 620 82 218 165 238 514 544 456 390
415 250 713 556 537 533 546 704 439 271 371 76 24 124 52 126 145 126 203 300 266 882 690 1117 1070 1202 1303 1312 673 856 1040 500 556 592 370 64 279 396 237 465 833 759 793
574 642 806 489 416 454 513 477 507 447 124 37 191 85 143 95 276 229 247 112 542 483 1152 1257 1004 1033 672 901 1008 1100 1109 615 772 640 393 61 122 537 628 186 466 469 476
702 600 538 596 521 417 525 343 371 366 239 201 195 242 189 193 254 132 166 334 572 780 1105 1208 1214 1321 1103 903 1031 1330 1297 1135 990 628 572 318 518 951 853 782 595 713 919
622 516 554 518 640 513 379 500 522 426 54 353 378 348 172 147 267 122 302 307 761 1149 1037 1160 1136 1255 626 312 534 1090 1318 1359 1343 870 450 569 1027 1265 1016 748 945 1130 1375
795 800 670 608 551 543 578 649 654 126 119 159 195 220 229 97 435 634 443 946 966 1303 1613 1495 1709 1238 255 676 535 1063 1530 1522 1006 707 269 468 919 991 1114 950 895 1102 1241
822 901 937 647 574 620 677 799 823 482 85 124 208 352 215 257 644 959 780 1026 1317 1278 1326 1358 1376 526 942 1422 1615 1629 1783 1467 1050 645 143 110 122 374 504 912 898 992 1200
904 1024 1039 869 570 709 865 906 701 119 12 29 148 141 327 344 691 986 1033 1412 1845 1356 1419 1044 844 761 1074 1053 1450 1702 1937 1545 1126 633 142 37 23 29 96 292 459 494 857
952 1143 1216 1114 880 1081 913 746 379 51 90 80 144 62 469 447 825 1267 1081 1715 1829 1246 1493 1285 1182 883 1187 774 743 1451 1782 1477 1127 927 651 133 89 271 182 410 619 441 1031
897 1188 1310 1156 1322 959 906 531 245 89 67 44 102 324 554 912 1151 1458 1088 1207 1672 1452 1744 1753 1390 1505 1144 1223 624 1190 1250 1716 1437 973 897 652 302 229 333 519 436 490 358
899 1205 1442 1325 830 874 721 558 230 132 57 45 44 143 355 1011 1411 1356 1187 1084 1218 1331 1481 1629 1772 1027 1019 969 857 285 722 1234 1404 1512 1338 1013 926 283 81 172 344 512 453
920 1288 1483 1510 1178 1051 715 615 354 233 143 188 181 228 707 1148 1262 1587 1297 1188 1358 1422 1158 1402 1891 1617 582 1178 1498 764 572 557 699 1291 1643 1284 1354 1256 546 246 168 319 463
1069 1334 1432 1619 1505 1268 951 622 429 162 145 90 39 400 744 1161 1235 1317 1195 1476 1514 1414 1298 1445 1636 1620 1364 900 1243 867 589 352 776 1023 1259 1360 1443 1293 1443 1400 619 414 627
1229 1391 1478 1647 1569 1130 1101 660 498 324 65 137 226 668 984 1316 1544 1312 1783 1855 1785 1338 1833 1672 1848 1826 1647 1022 944 1069 1031 1296 1276 937 897 688 874 966 958 1570 1469 1067 748
1126 1345 1428 1703 1599 1291 1062 861 446 400 97 214 375 683 755 848 1079 1548 1636 1825 1955 1791 1825 1480 1530 1692 1412 1520 1092 892 1051 1089 1294 1260 732 654 1337 1474 1097 911 1349 1282 1478
CIN
-114 -24 0 0 -10 -16 -12 -11 -3 -18 -10 -2 0 0 0 0 0 -1 -2 0 0 0 -17 -13 -9 -14 -19 -15 -8 -6 -3 0 0 -17 -5 -15 -39 -26 -12 -22 -6 -1 -1
-111 -30 -3 0 0 -10 -13 -10 -2 -13 -24 -6 0 0 0 0 0 0 -3 0 0 0 -4 -21 -33 -29 -23 -14 -27 -10 -6 -6 -14 -30 -33 -28 -59 -40 -14 -53 -11 -9 -1
-43 -38 -2 -2 0 0 -18 -22 -26 -9 -7 0 0 0 0 0 0 0 -2 -13 -1 -7 -13 -15 -25 -26 -14 -14 -21 -28 -16 -13 -14 -22 -43 -48 -62 -61 -34 -40 -17 -6 -4
-21 -34 -25 -10 -1 0 -14 -8 -17 -19 -10 -2 -2 -2 -1 -1 -3 0 -7 -8 -10 -11 -13 -28 -19 -14 -5 -3 -15 -15 -15 -23 -26 -26 -22 -53 -51 -36 -47 -55 -43 -28 -2
-11 -21 -10 -2 -2 0 -23 -22 -14 -14 -26 -20 -12 -3 -5 -13 -17 0 -3 -3 -17 -18 -14 -19 -10 -1 -1 -2 -43 -8 -14 -24 -62 -64 -17 -22 -6 -37 -75 -91 -84 -61 -3
-12 -16 -4 0 -5 -121 -1 -1 -3 -9 -3 -20 -12 -23 -8 -16 -4 -9 -4 -13 -14 -27 -17 -7 0 0 0 -1 -13 -12 -42 -61 -50 -35 -21 -3 -1 -33 -54 -59 -99 -93 -36
-1 -1 0 0 -79 -11 -5 -32 -31 -30 -40 -26 -12 -18 -9 -8 -54 -29 -12 -7 -15 -15 -11 -5 -2 0 0 0 -17 -12 -30 -51 -100 -26 -24 -1 -2 -31 -105 -36 -83 -98 -61
-1 -3 0 -9 -51 -39 -44 -97 -140 0 -20 -14 -13 -33 -22 -8 -26 -56 -10 -5 -3 -3 0 0 0 0 0 0 -14 -15 -9 -11 -62 -98 -1 -1 -8 -22 -27 -32 -65 -78 -70
-2 -4 -3 -1 -4 -24 -196 -83 -158 -24 -21 -18 -5 -10 -15 -8 -22 -16 -12 -2 0 0 0 0 0 0 -7 -1 -6 -10 -14 -9 -1 -11 -1 -1 -42 -9 -12 -26 -66 -57 -76
-2 -1 -1 0 0 -109 -99 -63 -87 -111 -17 -4 -22 -10 -29 -4 -8 -10 -3 -1 0 0 -2 0 0 0 -12 -6 -5 -12 -9 -15 -1 0 -2 -18 -44 0 -12 -34 -39 -60 -66
-1 -1 -2 0 0 -126 -73 -9 -21 -19 -8 -13 -7 -19 -9 -9 -2 -21 -12 -3 0 0 -2 0 0 -1 -3 -10 -20 -15 -14 -2 0 -1 -3 -61 -28 -3 -1 -18 -10 -48 -77
-1 -1 -1 0 -1 -4 -7 -22 -8 -49 -18 -25 -4 -18 -16 -27 -6 -6 -5 -5 -1 -3 -9 -8 -1 -6 -13 -1 -3 -17 -2 -1 -2 -1 -6 -74 -26 -7 -19 -12 -18 -18 -39
-9 -20 0 -1 -2 -1 -1 -1 -2 -5 -11 -34 -40 -11 -24 -13 -26 -4 -1 -1 -2 -11 -1 -10 -10 -1 0 -1 -1 -1 -1 -5 -1 -1 -45 -95 -36 -10 -11 -9 0 -10 -13
-2 -1 -1 -1 -1 0 0 -1 -1 -11 -15 -43 -5 -17 -13 -23 -4 -2 -1 -2 -6 -1 0 0 0 -1 -6 -8 -1 0 0 0 -1 0 -40 -97 -65 -7 0 -17 -4 -4 -9
-1 -1 -2 -1 -1 -1 -1 -2 -1 -1 -2 -3 -5 -2 -3 -2 -2 -1 -1 -1 -10 -1 0 -1 0 -1 0 -1 -1 -1 0 0 0 -1 -2 -66 -39 -2 0 -3 -6 -7 -3
-1 -1 0 -1 -1 0 0 0 -1 0 -31 0 -1 -4 -16 -12 -1 -1 -1 -2 -1 0 0 -1 -1 -1 -8 -23 -27 -6 -1 -1 0 -1 -2 -30 -18 -3 0 0 0 0 0
-1 -1 0 -1 -1 -1 0 0 0 -30 -13 -5 -47 -10 -1 -27 -2 0 -1 -1 -4 0 -17 -6 0 -1 -15 -13 -38 -10 0 0 -2 -8 -3 -6 -8 -16 0 0 -1 0 0
-2 -1 0 -1 -1 0 0 0 0 0 -37 -1 -20 -1 -7 -11 -1 -1 -1 -1 -1 -1 0 -10 -1 -4 -1 -1 -1 -1 -1 -1 -7 -16 -7 -6 -18 -10 -32 -6 -3 -1 0
-2 -2 -1 -1 -1 0 -1 0 0 -17 -86 -50 -3 -7 -14 -27 -1 -3 0 0 -5 -1 -1 -1 -18 -19 0 -1 -1 -1 -1 -2 -2 -2 -41 -39 -36 -15 -11 -39 -32 -23 -2
-2 -3 -1 -1 0 0 0 0 -1 -41 -5 -5 -1 -12 0 -3 0 -2 -1 -1 -2 0 -1 -6 -23 -21 -6 -21 -2 -1 0 -1 -2 -3 -7 -24 -54 -27 -5 -5 -11 -20 -8
-7 -6 -1 -3 0 0 0 0 -2 -13 -12 -25 -2 -1 0 -1 -2 -3 -1 -4 -3 -2 -2 -14 -12 -5 -1 -13 -5 -2 -2 -1 -4 -3 -2 -3 -41 -44 -7 -8 -2 -1 -33
-15 -10 -4 -6 -22 -2 -1 -1 -1 -1 -20 -12 -16 -7 -7 0 -2 -1 -2 -4 -2 -1 -9 -10 -14 -1 -5 -20 -2 -15 -1 -6 -1 0 -1 0 -2 -21 -51 -38 -14 -5 -1
-19 -21 -12 -7 -12 -1 -1 -1 0 -6 -19 -11 -2 -23 -3 0 -1 -2 -1 -1 -1 -2 -6 -9 -5 -7 -4 -13 -27 -8 -1 -2 -4 -7 -10 -2 -7 -1 -16 -42 -35 -25 -18
-23 -25 -23 -7 -3 0 0 -1 -1 -17 -29 -34 -29 -1 -1 -3 -5 -1 -1 0 -3 -1 -4 -1 -2 -1 -8 -1 -7 -25 -52 -44 -5 -5 -3 -3 -6 -3 -1 -2 -11 -29 -19
-30 -29 -28 -13 -3 -1 0 -1 -2 -5 -47 -27 -3 -2 -1 -4 -2 0 0 -5 -8 -6 -5 -1 -2 -6 -3 -3 -1 -1 -14 -1 -10 -1 -1 -19 -19 -4 -3 -2 -2 -1 -28
-56 -54 -40 -19 -8 -5 -4 -1 -21 -9 -38 -21 -3 -3 -2 -1 -1 -1 -2 -15 -13 0 -4 -2 -1 -3 -6 -2 -1 -11 -1 -4 -4 -5 -23 -22 0 -1 -2 -3 -1 -2 -1
Wind_Speed
16 16 19 18 18 17 17 18 19 20 23 24 23 25 25 25 25 24 24 25 22 19 17 17 17 17 16 16 16 16 16 15 14 14 16 15 12 8 5 6 5 5 3
17 16 15 15 16 15 15 12 15 19 21 22 20 22 24 24 24 25 25 24 22 21 18 18 17 17 16 17 17 16 15 14 13 12 13 15 10 8 5 5 5 4 4
17 16 15 13 16 13 13 13 8 11 15 18 16 18 20 22 23 23 23 22 21 20 19 18 16 15 15 16 16 16 15 14 13 12 11 11 11 8 5 4 7 7 7
16 15 12 12 12 12 10 9 3 6 8 11 15 13 16 20 22 22 22 21 21 20 18 18 15 14 14 15 15 16 15 14 14 13 13 11 10 7 3 6 3 10 10
14 13 11 13 14 9 9 12 10 8 6 5 7 7 12 19 18 22 21 21 20 19 18 16 15 14 13 14 14 15 14 15 15 14 10 8 7 6 3 8 12 12 16
14 14 12 13 12 10 14 8 9 6 7 7 24 17 20 17 14 20 20 20 20 19 17 15 15 14 15 15 16 16 16 15 15 18 11 11 11 5 4 15 19 16 19
14 12 12 11 12 13 11 8 9 7 11 21 24 19 20 20 19 21 20 20 20 18 16 16 15 15 15 14 13 12 13 13 14 15 12 11 10 6 13 11 32 31 27
14 13 11 10 9 3 3 6 8 16 16 24 23 14 20 20 18 20 21 21 20 18 16 16 16 14 14 14 13 10 8 11 11 12 12 12 11 11 15 37 38 40 34
12 9 12 10 7 6 16 6 7 25 26 6 23 17 17 21 19 21 22 21 20 18 18 18 16 15 13 13 11 10 9 10 9 12 14 14 14 16 22 34 42 41 39
8 12 11 12 13 14 16 16 2 26 24 22 22 20 22 20 20 22 22 21 21 19 18 17 16 13 13 12 11 11 12 12 12 15 17 13 15 19 26 31 37 42 41
14 9 9 9 13 15 14 14 15 21 24 24 19 6 12 20 21 22 22 21 21 19 18 17 16 14 12 12 14 14 12 13 14 17 18 17 21 24 28 29 33 40 42
11 11 6 8 14 14 14 12 15 11 24 24 22 7 10 21 22 20 18 21 21 20 18 17 15 14 13 13 14 14 13 14 15 17 17 19 22 24 28 31 33 35 38
11 13 10 8 11 12 12 11 14 14 10 8 19 6 11 21 22 24 23 22 21 19 18 18 16 14 14 12 12 12 13 16 16 17 20 22 23 24 28 31 32 33 34
11 11 11 8 9 8 9 9 10 10 10 10 3 6 8 23 25 24 23 22 20 20 18 16 15 13 12 13 14 13 16 17 17 18 20 22 23 25 28 30 31 31 31
9 11 9 5 6 8 8 8 8 7 5 8 16 6 24 24 24 23 22 22 20 19 18 17 15 14 14 14 14 16 16 16 17 17 21 22 23 26 28 29 28 28 28
10 10 7 3 4 7 6 8 9 7 6 5 4 9 4 23 24 24 22 23 20 19 18 17 15 14 14 13 16 16 16 17 17 18 21 23 24 26 26 27 27 27 26
11 9 7 5 5 5 8 9 9 9 12 14 26 25 26 25 24 22 23 20 21 16 16 18 16 15 14 13 17 18 18 18 20 20 21 23 24 25 25 26 26 26 25
12 10 9 8 6 6 6 8 10 11 8 24 22 21 17 22 24 23 22 19 20 19 18 16 15 15 13 14 18 19 20 20 21 21 21 23 23 23 24 25 25 24 24
11 10 11 9 9 8 6 7 10 8 22 24 21 19 19 22 24 24 22 18 19 19 18 16 15 14 13 12 19 20 20 21 21 22 22 22 22 23 23 23 23 24 24
13 11 9 8 9 7 6 6 15 15 23 25 25 23 22 25 24 25 22 21 20 19 18 17 15 14 13 13 12 15 21 20 21 21 21 22 22 22 22 23 23 23 23
16 13 10 11 10 9 6 10 17 20 25 27 28 25 22 24 23 25 24 21 21 20 17 15 15 14 13 13 15 15 13 20 19 19 20 20 21 21 21 22 22 22 22
18 15 13 12 13 14 12 13 14 19 23 27 29 27 25 23 23 25 22 20 17 17 18 13 15 14 13 14 14 16 8 12 19 19 19 20 20 20 20 21 21 21 21
19 18 15 14 13 16 6 4 4 12 20 24 30 28 26 25 24 24 20 20 19 21 17 17 17 15 14 14 14 15 10 13 12 16 18 19 20 19 19 20 20 20 20
18 15 16 15 14 14 12 7 9 15 15 19 22 30 18 23 23 23 22 19 20 18 18 18 19 16 16 15 15 13 15 16 16 11 9 15 20 19 18 19 20 20 19
16 15 15 16 15 15 16 14 11 13 8 4 3 1 18 16 22 22 21 20 18 19 15 17 17 16 16 17 15 14 16 15 15 17 12 13 19 15 17 19 20 20 19
16 15 15 15 15 15 16 17 17 15 7 2 7 3 1 11 20 21 19 18 20 19 17 17 18 16 17 16 16 17 17 15 16 14 14 15 15 14 19 20 22 20 17
Wind_Direction
103 99 103 93 91 84 82 89 93 96 104 105 101 107 108 110 110 105 103 107 95 83 73 64 61 52 35 28 29 41 46 47 47 47 58 57 42 24 3 23 300 3 326
109 103 98 92 88 84 76 72 86 94 101 105 96 103 109 114 114 121 122 117 110 106 86 90 76 59 35 30 28 31 33 42 52 57 64 74 43 25 326 304 295 288 273
107 104 97 89 92 78 71 79 72 74 83 91 84 92 96 107 119 125 135 136 137 129 122 120 88 45 31 31 27 31 35 41 48 62 84 81 84 53 337 319 262 257 251
106 104 96 89 82 79 62 50 329 56 61 65 81 75 88 109 123 128 134 140 154 154 140 143 101 57 34 40 52 56 47 35 31 52 58 51 77 5 342 283 274 243 242
101 103 95 96 89 68 66 75 59 49 57 15 29 14 73 137 111 138 140 156 160 158 147 132 131 106 64 66 83 79 56 49 9 22 37 53 50 52 14 281 243 236 229
105 108 103 103 98 69 85 54 31 22 285 291 180 111 136 119 252 196 157 168 166 156 137 121 120 106 103 98 67 94 78 34 18 272 88 73 115 31 78 251 235 230 222
112 102 107 106 107 100 82 45 14 352 269 227 187 147 174 159 147 180 165 165 160 146 122 124 117 121 127 117 106 103 92 69 52 163 78 74 81 71 130 237 214 214 210
113 109 106 107 104 35 23 353 6 259 257 213 203 177 184 152 126 179 171 168 151 135 125 130 132 128 132 141 141 130 109 80 72 123 83 78 71 104 132 186 205 188 200
108 95 112 110 95 78 121 50 345 175 192 234 213 144 137 151 147 155 157 158 153 138 145 156 141 148 151 164 155 137 124 131 103 122 125 117 91 111 145 177 196 204 197
90 112 109 112 116 123 127 136 336 180 165 170 166 153 178 164 148 183 185 162 161 157 154 157 149 159 169 161 155 150 124 126 143 143 164 55 102 125 147 174 181 186 190
121 100 101 107 120 128 128 126 127 148 169 188 150 58 107 169 177 182 191 164 171 160 158 174 171 168 173 154 132 117 150 161 148 150 154 102 132 138 153 159 174 186 190
116 112 89 103 125 122 124 110 122 105 194 216 226 62 87 207 206 212 220 183 176 174 174 170 176 170 165 152 128 122 150 156 156 160 135 112 134 143 155 164 168 166 179
111 119 108 98 110 115 112 106 123 127 110 107 156 39 297 224 220 192 187 174 172 149 170 157 156 162 152 157 144 143 143 147 148 151 103 124 137 153 156 162 168 173 178
113 110 108 94 105 96 86 86 98 108 115 124 62 349 324 222 198 203 205 198 199 193 182 178 191 192 174 151 145 141 127 138 145 141 112 122 132 149 151 162 168 171 169
99 117 109 81 85 98 77 81 87 93 85 124 154 132 194 217 208 207 212 203 212 205 197 188 203 185 169 153 148 131 133 137 144 154 119 128 136 153 160 162 167 168 171
103 107 98 56 58 96 68 93 101 72 68 65 324 288 257 223 213 209 218 202 211 215 228 218 209 201 177 161 141 140 136 137 142 145 119 132 146 148 157 168 169 167 170
106 101 96 87 89 83 101 107 100 88 132 146 221 214 211 214 217 219 210 228 205 238 234 213 215 196 186 174 143 139 131 132 124 134 131 112 120 141 158 160 168 169 177
109 106 106 109 111 104 87 97 105 112 3 200 226 230 240 226 218 217 217 231 217 207 214 212 211 205 220 179 135 133 127 122 118 133 143 132 134 129 150 163 168 174 177
109 102 114 119 123 109 80 87 103 54 198 229 235 239 237 230 222 217 222 238 224 222 221 227 223 216 239 222 123 121 128 112 121 122 130 142 143 147 144 145 155 168 169
117 111 108 101 118 102 72 64 130 120 181 193 214 224 226 218 221 215 225 224 230 232 232 226 215 224 233 235 257 66 124 118 123 117 128 138 128 140 153 138 150 155 160
137 126 113 123 115 113 91 115 138 150 178 179 190 211 222 221 223 219 214 221 228 227 245 262 253 262 275 261 224 68 222 142 129 124 132 144 124 134 140 146 157 144 147
151 141 133 130 132 137 129 127 134 147 159 163 187 208 217 224 225 218 228 235 247 251 247 288 259 284 298 292 275 240 107 144 157 151 143 155 141 129 142 145 153 158 157
154 155 143 135 130 139 95 313 342 111 141 151 180 207 219 225 230 229 240 240 241 236 260 258 231 244 270 262 253 255 309 298 293 118 136 154 153 150 149 155 155 149 153
154 139 140 138 132 133 125 105 114 129 126 138 145 197 243 234 237 239 238 248 243 254 259 254 226 243 237 255 254 313 275 255 241 316 45 123 157 162 157 158 165 161 155
137 132 134 133 134 134 139 137 128 137 119 116 254 238 250 259 246 244 248 250 256 252 277 260 260 272 284 273 298 297 270 286 284 267 314 304 206 146 165 175 165 169 159
135 133 129 133 134 135 141 148 148 144 128 162 257 225 211 276 254 251 254 261 258 262 267 273 265 286 281 293 303 276 268 296 288 309 301 290 293 302 239 198 192 172 157